Regional Weather Roundup
Issued by NWS

Home | Current Version | Previous Version | Text Only | Print | Product List | Glossary Off
Versions: 1 2 3 4 5 6 7 8 9 10 11 12 13 14 15 16 17 18 19 20 21 22 23 24 25 26 27 28 29 30 31 32 33 34 35 36 37 38 39 40 41 42 43 44 45 46 47 48 49 50

731
ASUS43 KTOP 280808
RWRKS

WEATHER ROUNDUP FOR KANSAS
NATIONAL WEATHER SERVICE GOODLAND KS
300 AM CDT FRI APR 28 2017

NOTE:  "FAIR" INDICATES FEW OR NO CLOUDS BELOW 12,000 FEET WITH NO
SIGNIFICANT WEATHER AND/OR OBSTRUCTIONS TO VISIBILITY.

KSZ001>006-013>018-027>032-041>047-280900-
NORTHWEST KANSAS

CITY           SKY/WX    TMP DP  RH WIND       PRES   REMARKS
GOODLAND       PTCLDY    37  35  92 W8        29.58F
HAYS           CLOUDY    47  45  93 E17       29.58F
HILL CITY      CLOUDY    46  46 100 E7        29.60F
RUSSELL        CLOUDY    47  45  93 E14G21    29.57F
$$

KSZ061>065-074>080-084>089-280900-
SOUTHWEST KANSAS

CITY           SKY/WX    TMP DP  RH WIND       PRES   REMARKS
DODGE CITY     CLOUDY    47  45  93 CALM      29.56S
ELKHART          N/A     43  38  83 NW6         N/A
GARDEN CITY    CLOUDY    42  40  92 NW12      29.59R
GREAT BEND     CLOUDY    50  47  89 E15       29.53F
LIBERAL        CLOUDY    48  44  86 NW10      29.59R
PRATT          CLOUDY    48  45  90 SE5       29.57F
$$

KSZ066>073-081>083-090>101-280900-
SOUTHEAST KANSAS

CITY           SKY/WX    TMP DP  RH WIND       PRES   REMARKS
CHANUTE        PTCLDY    54  47  77 E6        29.64F
COFFEYVILLE    PTCLDY    57  53  86 SE10      29.63F
HUTCHINSON     MOCLDY    52  47  83 E12       29.58F
MEDICINE LODGE   N/A     49  46  90 E7        29.55S
NEWTON         CLOUDY    51  47  86 E12       29.59F
PARSONS        MOCLDY    55  51  86 SE3       29.65F
WICHITA INTL   CLOUDY    54  49  83 E13       29.57F
WICHITA JABRA  CLOUDY    52  48  86 E9        29.58F
WICHITA MCCONL MOCLDY    54  48  80 SE10      29.57F
WINFIELD       CLOUDY    57  51  80 SE13      29.58F
$$

KSZ007>012-019>026-033>040-048>060-102>105-280900-
NORTHEAST KANSAS

CITY           SKY/WX    TMP DP  RH WIND       PRES   REMARKS
CONCORDIA      LGT RAIN  46  46 100 E10       29.63F
EMPORIA        LGT RAIN  50  48  93 E15       29.63F
LAWRENCE       CLOUDY    51  49  92 NE13      29.70F
MANHATTAN      LGT RAIN  49  47  93 NE14      29.66F
MARYSVILLE     RAIN      46  46 100 E10       29.70
OLATHE IND     LGT RAIN  51  47  86 E13G20    29.71F
OLATHE EXE     LGT RAIN  50  49  96 E13       29.70F
SALINA         CLOUDY    51  47  86 E12       29.61F
TOPEKA BILLARD LGT RAIN  51  48  89 E13       29.70F
TOPEKA FORBES  LGT RAIN  51  48  89 E10       29.68F
$$




USA.gov is the U.S. government's official web portal to all federal, state and local government web resources and services.